Location: Concepci�n
(32.5333°N, 117.1167°W)
Time: 17:45:55
(UTC+00:00)

NOSS 3-2 (A) - Pass Details

Date: 08 May 2021
Orbit: 776 x 1432 km, 63.4° (Epoch: 14 June)

Event Time Altitude Azimuth Distance (km) Brightness Sun altitude
Exits shadow 12:21:57 - 206° (SSW) 3,110 5.7 -7.2°
Reaches altitude 10° 12:23:55 10° 206° (SSW) 2,341 5.1 -6.9°
Maximum altitude 12:29:14 84° 118° (ESE) 843 3.3 -5.9°
Drops below altitude 10° 12:35:12 10° 31° (NNE) 2,615 6.7 -4.7°
Sets 12:37:55 0° 31° (NNE) 3,654 7.5 -4.2°
